Погода в Жердевке

Погода в Жердевке : погода сейчас, прогноз погоды и архив. Всё, что Вы хотите узнать о погоде в Жердевке!

Хотите узнать прогноз погоды в Жердевке? Тогда Вам сюда: Погода в Жердевке

Поиск расширенной информации на нашем сайте:

Другие новости

Новости СМИ2

Главная страница сайта

Новости сайта

03.07.2017

Напоминаем, что на нашем специализированном сайте Метеоцентр.Азия вы можете получить высокодетализированные автоматические прогнозы погоды по пунктам России, СНГ и мира в авиационном формате (включающие направление и скорость ветра, видимость, явления погоды, количество и форму облачности, нижнюю и верхнюю границу облачности).

Рекомендуем: Цена пластиковые окна расчет стоимости окон cmkbadpat окна.

Погода в Жердевке - сегодня

Время (UTC), дата Ветер
(°,м/с) 
Видим.   Явления Облачность Т
(°С)
Тd
(°С)
f(%) Тe
(°С)
Pmin
(гПа)
dP
(гПа)
Po
(мм)
O2
(г/м3)
Тmin Tmax R s Состояние
почвы
06 15.08.17 260 (З) 10 км    4/3 1000 м средняя 
[Cu hum|Ac lent]
+25 +10.5 40 +27  1018.6  0.7  751  275           
09 15.08.17 330 (СЗ) 20000 м    6/4 1000 м верхняя 
[Cu hum|Ci fib]
+29.8 +9.8 29 +31  1018.3  -0.1  751  271           
12 15.08.17 060 (СВ) 20000 м    8/8 900 м 
[Cu med, cong]
+31.2 +9.4 26 +32  1017.5  -0.7  751  270           
15 15.08.17 020 (С) 20000 м  {ливн. осадки}  9/0 средняя 
[Ac und]
+25.6 +12.9 45 +31  1018.6  0.8  751  274    +31.5  0.8     
18 15.08.17 030 (СВ) 10 км  {ливн. осадки}  8/4 600 м кучево-дожд., средняя 
[Cb cap|Ac trans]
+23.4 +16 63 +34  1020  1.3  752  276           
21 15.08.17 010 (С) 10 км    ясно 
+20.2 +16.4 79 +31  1020.8  0.6  753  279           
00 16.08.17 360 (С) 10 км    ясно 
+17.8 +15.8 88 +29  1021.1  0.1  753  281           
03 16.08.17 020 (С) 10 км    6/0 средняя 
[Ac trans]
+16.6 +15.1 91 +26  1022  0.9  753  283  +16.6         
06 16.08.17 100 (В) 10 км    4/0 средняя 
[Ac cast]
+22.9 +13.4 55 +29  1022.8  1.1  754  278           
09 16.08.17 090 (В) 20000 м    4/1 1000 м средняя 
[Cu hum|Ac trans]
+27.3 +11.7 38 +31  1022.6  754  274           
12 16.08.17 050 (СВ) 20000 м    6/6 600 м 
[Cu med, cong]
+27.2 +11.8 38 +31  1022.2  -0.4  754  274           
15 16.08.17 070 (В) 20000 м    4/3 600 м верхняя 
[Cu med, cong|Ci fib]
+27.2 +12.2 39 +31  1021.9  -0.3  754  274    +29.4       
18 16.08.17 060 (СВ) 10 км    3/0 средняя 
[Ac trans]
+23.1 +13.7 55 +29  1022.6  0.5  754  277           
21 16.08.17 030 (СВ) 10 км    ясно 
+19.4 +15 76 +29  1023.5  0.6  755  281           
00 17.08.17 070 (В) 10 км    ясно 
+17 +14 82 +25  1024.5  0.9  755  284           
03 17.08.17 040 (СВ) 10 км    ясно 
+15.8 +13.5 86 +23  1024.4  -0.2  755  285  +15.5         
06 17.08.17 070 (В) 10 км    ясно 
+22.8 +12.9 54 +28  1024.4  0.5  755  278           
09 17.08.17 080 (В) 6-10{11}  20000 м    ясно 
+27.3 +8.9 31 +27  1023.6  -0.6  755  275           
12 17.08.17 070 (В) 5{10}  20000 м    ясно 
+29.1 +8.1 27 +29  1022.7  -0.8  754  273           
15 17.08.17 070 (В) 20000 м    ясно 
+28.5 +8.2 28 +29  1022  -0.8  754  274    +29.3       
18 17.08.17 040 (СВ) 20000 м    ясно 
+23.2 +9.8 43 +24  1022.9  0.7  754  278           
21 17.08.17 050 (СВ) 20000 м    ясно 
+19.6 +10.7 56 +23  1023.6  0.4  755  282           
00 18.08.17 030 (СВ) 20000 м    ясно 
+15.9 +11.2 74 +20  1024  0.2  755  285           
03 18.08.17 030 (СВ) 10 км    3/0 средняя 
[Ac As]
+15.2 +11.3 78 +19  1024.5  0.5  755  286  +14.7         
06 18.08.17 100 (В) 10 км    3/3 1000 м 
[Cu hum]
+23.9 +11.5 46 +27  1023.9  -0.1  755  278           
Время (UTC), дата Ветер
(°,м/с) 
Видим.   Явления Облачность Т
(°С)
Тd
(°С)
f(%) Тe
(°С)
Pmin
(гПа)
dP
(гПа)
Po
(мм)
O2
(г/м3)
Тmin Tmax R s Состояние
почвы

Для получения пояснительной информации подведите курсор к названию столбца.

ПОГОДА в Жердевке - архив

Всё, что Вы хотите узнать о погоде в Жердевке - удобно и подробно!

Выберите нужную дату (начиная с 1 января 2015* года) и нажмите кнопку "Найти".
Будут отображены архивные сводки погоды по пункту Жердевка, начиная с указанной даты.


Отображать данные в формате CSV (для использования в таблицах Excel)


Внимание! Наш архив погоды предназначен исключительно для личного некоммерческого использования в познавательных целях. Если Вам необходимы официальные справки о состоянии погоды (для производственных, юридических, коммерческих и т.п. целей), обращайтесь в органы Росгидромета.

*Примечание: данная дата относится к архиву по метеостанциям СССР (Россия, СНГ, Балтия).
Архив по метеостанциям Зарубежной Европы и Азии (кроме Китая) хранится 10 дней, по другим регионам земного шара (Китай, Африка, Америка, Австралия, Океания) - 1 день.

Жердевка - район местоположения метеостанции


Название, широта, долгота, высота метеостанции:
Жердевка 51.8°ш. 41.5°д. 147 м над ур. моря [Российская Федерация]

Дополнительная информация

В oтличие oт бoльшинства пoгoдных сайтoв мы публикуем пoдрoбную метеoинфoрмацию в детальнoм прoфессиoнальнoм фoрмате.

Характеристики температуры и влажнoсти вoздуха измеряются на высoте 2 м в тени вдали oт зданий и деревьев.
Скoрoсть ветра измеряется на высoте 10 м (на урoвне рoста челoвека скoрoсть ветра ниже в 1.5-2 раза). Если метеoстанция нахoдится в гoрoде или в лесу, тo скoрoсть ветра занижена на 2-4 м/с пo сравнению с oткрытым местoм. Скoрoсть ветра над акватoриями крупных рек и oзёр, а также на вершинах хoлмoв на 2-5 м/с выше, чем в oбычных услoвиях.
Атмoсфернoе давление в разных тoчках местнoсти мoжет значительнo oтличаться oт давления на метеoстанции, в зависимoсти oт услoвий рельефа (при пoдъёме на 10 м давление пoнижается примернo на 1 мм рт.ст.).